[[{"header":{"parameterUnit":"m.s-1","parameterCategory":1,"la1":30.2991,"la2":30.254,"lo1":-89.0895,"lo2":-89.0444,"dy":0.0017,"dx":0.0017,"nx":28,"ny":28,"refTime":"2023-08-27T03:00:00:Z","depth":0,"parameterNumber":2,"parameterNumberName":"U-component_of_WINDS"},"data":[0,0,0,0,0,0,0,0,0,0,0,0,0,0,0,0,0,0,0,0,0,0,0,0,0,0,0,0,0,0,0,0,0,0,0,0,0,0,0,0,0,0,0,0,0,0,0,0,0,0,0,0,0,0,0,0,0,0,-0.4562,-0.4561,0,-0.4494,-0.4493,-0.4492,-0.4461,-0.4461,-0.4461,-0.4461,-0.4392,-0.439,-0.4388,0,0,0,0,0,0,0,0,0,0,0,0,0,-0.4665,-0.4663,-0.4562,-0.4561,-0.456,-0.4494,-0.4493,-0.4492,-0.4461,-0.4461,-0.4461,-0.4461,-0.4393,-0.439,-0.4388,0,0,0,0,0,0,0,0,0,0,0,0,0,-0.4611,-0.4662,-0.4562,-0.4536,-0.4534,-0.4494,-0.4493,-0.4492,-0.4461,-0.4461,-0.4461,-0.4461,-0.4393,-0.4391,-0.4388,-0.4369,0,0,-0.4379,-0.4378,0,0,0,0,0,0,0,0,-0.4614,-0.4607,-0.4541,-0.4538,-0.4535,-0.4486,-0.4504,-0.4451,-0.4461,-0.4489,-0.4461,-0.4461,-0.4423,-0.4418,-0.4405,-0.4366,-0.4363,-0.4379,-0.4377,-0.4376,-0.4375,0,0,0,0,0,0,0,-0.4618,-0.461,-0.4535,-0.454,-0.4536,-0.4529,-0.4521,-0.4494,-0.4456,-0.4486,-0.4484,-0.4476,-0.4422,-0.4408,-0.4403,-0.4362,-0.4379,-0.4376,-0.4375,-0.4374,-0.4304,-0.4303,0,0,0,0,0,0,-0.4625,-0.4613,-0.4537,-0.4533,-0.4575,-0.4527,-0.4518,-0.4502,-0.4456,-0.445,-0.4476,-0.4475,-0.4413,-0.4407,-0.4401,-0.4376,-0.4376,-0.4373,-0.4372,-0.4304,-0.4304,-0.4303,0,0,0,0,0,0,-0.4628,-0.4619,-0.454,-0.4572,-0.4562,-0.4525,-0.4506,-0.45,-0.4487,-0.4449,-0.4442,-0.4469,-0.4413,-0.4405,-0.4377,-0.4373,-0.4372,-0.4369,-0.4304,-0.4304,-0.4304,-0.4325,0,0,0,0,0,0,-0.4631,-0.462,-0.4612,-0.4572,-0.456,-0.4517,-0.4506,-0.4499,-0.4482,-0.4479,-0.444,-0.4434,-0.4412,-0.4381,-0.4374,-0.4369,-0.4367,-0.4304,-0.4304,-0.4304,-0.4325,-0.4326,-0.4327,0,0,0,0,0,-0.4635,-0.4621,-0.4612,-0.4603,-0.4549,-0.4517,-0.451,-0.4485,-0.4482,-0.4473,-0.4449,-0.4435,-0.4375,-0.4379,-0.4371,-0.4364,-0.4304,-0.4304,-0.4304,-0.4324,-0.4326,-0.4327,0,0,0,0,0,0,-0.4661,-0.4615,-0.4605,-0.4577,-0.4551,-0.4512,-0.4501,-0.4487,-0.4461,-0.446,-0.443,-0.4421,-0.4397,-0.4378,-0.4383,-0.4344,-0.4338,-0.4336,-0.4357,-0.4358,-0.4359,-0.4364,-0.4365,0,0,0,0,0,-0.4664,-0.4641,-0.4602,-0.4582,-0.4569,-0.4538,-0.4522,-0.4505,-0.4477,-0.4466,-0.444,-0.4413,-0.4388,-0.4372,-0.4347,-0.4322,-0.4313,-0.4314,-0.4315,-0.4316,-0.4314,-0.43,-0.43,-0.4302,-0.4302,-0.4302,0,0,-0.4669,-0.4641,-0.4628,-0.4587,-0.4564,-0.4542,-0.4528,-0.4505,-0.4488,-0.4462,-0.4434,-0.4415,-0.4383,-0.4357,-0.4344,-0.434,-0.4312,-0.4315,-0.4316,-0.4314,-0.43,-0.43,-0.43,-0.4302,-0.4302,-0.4302,0,0,-0.4666,-0.4643,-0.4624,-0.4602,-0.4569,-0.4548,-0.4543,-0.4506,-0.4491,-0.4463,-0.4444,-0.4424,-0.4381,-0.4359,-0.4342,-0.4333,-0.4319,-0.4326,-0.4331,-0.4318,-0.4317,-0.4317,-0.4314,-0.4313,-0.4325,-0.4325,-0.4325,0,-0.4677,-0.4642,-0.4616,-0.4593,-0.4576,-0.4552,-0.4533,-0.4513,-0.4473,-0.4461,-0.4458,-0.4404,-0.4381,-0.435,-0.4348,-0.4335,-0.4329,-0.433,-0.432,-0.4319,-0.4318,-0.4315,-0.4314,-0.4326,-0.4326,-0.4325,-0.4325,0,-0.4657,-0.4633,-0.4621,-0.4584,-0.4565,-0.4544,-0.4515,-0.4499,-0.4484,-0.4464,-0.4436,-0.4408,-0.4377,-0.4368,-0.4353,-0.4335,-0.4334,-0.4325,-0.4319,-0.432,-0.4316,-0.4314,-0.4327,-0.4327,-0.4326,-0.4326,0,0,-0.4668,-0.4617,-0.4613,-0.4596,-0.4558,-0.4539,-0.4518,-0.4487,-0.4474,-0.4448,-0.4429,-0.4394,-0.4387,-0.4368,-0.435,-0.4339,-0.4334,-0.4332,-0.4331,-0.4333,-0.4312,-0.4319,-0.4318,-0.4325,-0.4324,-0.4324,-0.4315,0,-0.4661,-0.4621,-0.4597,-0.4567,-0.4545,-0.4522,-0.4504,-0.4479,-0.4459,-0.4438,-0.4417,-0.4392,-0.4384,-0.4372,-0.436,-0.4337,-0.4329,-0.4337,-0.4307,-0.4306,-0.4315,-0.4316,-0.4322,-0.4315,-0.4313,-0.4313,-0.4313,0,-0.4646,-0.462,-0.4588,-0.4553,-0.4543,-0.4526,-0.4497,-0.4477,-0.4448,-0.4435,-0.4415,-0.4397,-0.4374,-0.4371,-0.4339,-0.4345,-0.4331,-0.4318,-0.4317,-0.4313,-0.4309,-0.4311,-0.4312,-0.4311,-0.431,-0.4311,-0.4311,0,-0.4657,-0.4615,-0.459,-0.4576,-0.4535,-0.4524,-0.4506,-0.4477,-0.4461,-0.4436,-0.4425,-0.4397,-0.4382,-0.4361,-0.4337,-0.4336,-0.4307,-0.4302,-0.4296,-0.4296,-0.429,-0.4291,-0.4288,-0.4282,-0.4282,-0.4282,-0.4282,0,-0.4651,-0.4632,-0.4595,-0.4579,-0.4558,-0.4531,-0.4511,-0.4491,-0.4466,-0.4447,-0.4427,-0.4409,-0.4379,-0.4358,-0.4339,-0.4315,-0.4308,-0.4297,-0.4292,-0.4299,-0.43,-0.4289,-0.4289,-0.4282,-0.4282,-0.4282,-0.4282,0,-0.466,-0.4634,-0.4606,-0.4569,-0.4559,-0.4545,-0.4514,-0.4498,-0.4479,-0.4455,-0.4448,-0.4416,-0.439,-0.4365,-0.433,-0.4317,-0.4294,-0.4288,-0.4304,-0.4301,-0.4297,-0.4297,-0.4287,-0.4284,-0.428,-0.428,-0.428,0,-0.4657,-0.4642,-0.4604,-0.459,-0.4573,-0.455,-0.4533,-0.4507,-0.449,-0.4457,-0.4446,-0.4419,-0.4395,-0.4355,-0.433,-0.4303,-0.4296,-0.4294,-0.4291,-0.4299,-0.4295,-0.4296,-0.4295,-0.4294,-0.4295,-0.4295,-0.4295,0,-0.4655,-0.4644,-0.462,-0.4592,-0.4573,-0.455,-0.4526,-0.4516,-0.4485,-0.4467,-0.4441,-0.4423,-0.4388,-0.4361,-0.4332,-0.4314,-0.4299,-0.4296,-0.4293,-0.4299,-0.4309,-0.4304,-0.4306,-0.4296,-0.4296,-0.4296,-0.4296,-0.4296,-0.4658,-0.4644,-0.4615,-0.459,-0.4569,-0.4548,-0.4531,-0.451,-0.4487,-0.4456,-0.4442,-0.4416,-0.4388,-0.4348,-0.433,-0.4309,-0.4305,-0.4301,-0.43,-0.43,-0.4301,-0.4313,-0.4304,-0.4304,-0.4304,-0.4304,-0.4304,0,-0.4655,-0.4636,-0.4613,-0.458,-0.456,-0.4549,-0.4522,-0.4507,-0.4483,-0.4459,-0.4437,-0.4407,-0.4381,-0.4354,-0.4327,-0.4315,-0.4308,-0.4309,-0.4309,-0.4305,-0.4306,-0.4311,-0.4315,-0.4315,-0.4315,-0.4315,-0.4315,-0.4315,-0.4651,-0.4627,-0.4612,-0.4577,-0.4558,-0.4531,-0.4517,-0.4497,-0.4478,-0.4445,-0.4424,-0.4406,-0.4381,-0.4352,-0.4328,-0.4321,-0.4311,-0.4314,-0.4305,-0.4306,-0.4305,-0.4304,-0.4309,-0.4313,-0.4313,-0.4306,-0.4306,-0.4306]},{"header":{"parameterUnit":"m.s-1","parameterCategory":1,"la1":30.2991,"la2":30.254,"lo1":-89.0895,"lo2":-89.0444,"dy":0.0017,"dx":0.0017,"nx":28,"ny":28,"refTime":"2023-08-27T03:00:00:Z","depth":0,"parameterNumber":3,"parameterNumberName":"V-component_of_WINDS"},"data":[0,0,0,0,0,0,0,0,0,0,0,0,0,0,0,0,0,0,0,0,0,0,0,0,0,0,0,0,0,0,0,0,0,0,0,0,0,0,0,0,0,0,0,0,0,0,0,0,0,0,0,0,0,0,0,0,0,0,3.9533,3.9533,0,3.9566,3.9566,3.9567,3.9527,3.9525,3.9524,3.9523,3.9555,3.9558,3.956,0,0,0,0,0,0,0,0,0,0,0,0,0,3.9434,3.9436,3.9533,3.9533,3.9534,3.9566,3.9566,3.9567,3.9527,3.9525,3.9524,3.9522,3.9555,3.9557,3.956,0,0,0,0,0,0,0,0,0,0,0,0,0,3.9473,3.9437,3.9533,3.9518,3.9517,3.9566,3.9566,3.9567,3.9528,3.9525,3.9523,3.9521,3.9554,3.9557,3.956,3.9626,0,0,3.9571,3.9572,0,0,0,0,0,0,0,0,3.9471,3.9477,3.9519,3.9519,3.9518,3.954,3.9544,3.9587,3.9528,3.9523,3.9523,3.952,3.9552,3.9555,3.9566,3.9627,3.9629,3.9571,3.9573,3.9575,3.9575,0,0,0,0,0,0,0,3.9468,3.9475,3.9546,3.952,3.9519,3.9509,3.9512,3.9552,3.955,3.9524,3.9521,3.9525,3.9551,3.9563,3.9567,3.9629,3.9571,3.9574,3.9576,3.9577,3.9746,3.9749,0,0,0,0,0,0,3.9467,3.9473,3.9545,3.9547,3.9488,3.9513,3.9516,3.9535,3.9549,3.9549,3.9527,3.9523,3.9559,3.9563,3.9568,3.9646,3.9574,3.9578,3.958,3.9744,3.9747,3.9749,0,0,0,0,0,0,3.9465,3.9474,3.9543,3.9509,3.9517,3.9517,3.9538,3.9537,3.9549,3.9552,3.9551,3.954,3.9557,3.9563,3.9612,3.9647,3.9579,3.9582,3.9741,3.9745,3.9748,3.9803,0,0,0,0,0,0,3.9463,3.9474,3.9498,3.951,3.9519,3.9587,3.954,3.9539,3.9555,3.9551,3.9564,3.9564,3.9556,3.9607,3.9615,3.965,3.9585,3.9738,3.9743,3.9747,3.9798,3.9808,3.9817,0,0,0,0,0,3.9459,3.9512,3.95,3.9509,3.955,3.9589,3.9594,3.9585,3.9558,3.9583,3.9585,3.9563,3.9642,3.9612,3.9621,3.9658,3.9736,3.9741,3.9747,3.9794,3.9806,3.9816,0,0,0,0,0,0,3.9504,3.9513,3.95,3.9558,3.9573,3.9582,3.9614,3.9598,3.962,3.9615,3.9601,3.9604,3.9657,3.9662,3.9629,3.9722,3.9684,3.9692,3.9717,3.9729,3.9738,3.9736,3.9588,0,0,0,0,0,3.952,3.9552,3.9558,3.9609,3.9617,3.9614,3.9631,3.9622,3.9637,3.9643,3.9648,3.9664,3.9692,3.971,3.9736,3.9798,3.9801,3.9828,3.9837,3.9845,3.9852,3.9886,3.9899,3.9768,3.9768,3.9767,0,0,3.9555,3.9564,3.9584,3.9618,3.9628,3.9661,3.962,3.9656,3.968,3.9648,3.9695,3.97,3.9716,3.9772,3.9797,3.9778,3.9889,3.9852,3.9858,3.9861,3.9893,3.9906,3.9917,3.9771,3.9771,3.977,0,0,3.9635,3.9644,3.9688,3.97,3.9717,3.9715,3.9726,3.9738,3.974,3.9787,3.9765,3.9793,3.9841,3.9854,3.9867,3.9953,3.9934,3.9962,4.001,4.0044,4.0055,4.0064,4.0096,4.0107,3.9968,3.9968,3.9968,0,3.9675,3.9724,3.9713,3.9751,3.9767,3.974,3.9785,3.9797,3.9821,3.9833,3.9811,3.9872,3.9881,3.9941,3.9962,3.9973,3.9985,3.996,4.0054,4.0063,4.0071,4.0102,4.0114,3.9972,3.9971,3.9971,3.9971,0,3.9774,3.9808,3.9841,3.9867,3.9886,3.9927,3.9922,3.9943,3.9933,3.9933,3.9982,3.9992,4.002,4.0033,4.0023,4.0092,4.0079,4.0056,4.0018,4.0088,4.0116,4.0127,3.9976,3.9975,3.9974,3.9973,0,0,3.9882,3.9902,3.9914,3.9926,3.9944,3.997,4.001,4.0038,4.0057,4.0075,4.0108,4.0151,4.013,4.0144,4.0135,4.0165,4.0234,4.0138,4.0139,4.0157,4.0312,4.033,4.0344,4.0222,4.0224,4.0226,4.0311,0,3.9963,4.0033,4.0025,4.0092,4.0124,4.01,4.0135,4.015,4.0151,4.0178,4.018,4.021,4.018,4.0189,4.0217,4.022,4.0265,4.0213,4.0254,4.0255,4.0251,4.0358,4.0377,4.0458,4.0322,4.0324,4.0325,0,4.0067,4.009,4.0161,4.0175,4.0188,4.0219,4.0245,4.0271,4.0288,4.0287,4.0304,4.029,4.0331,4.0291,4.0347,4.0312,4.0328,4.0332,4.0335,4.0339,4.0295,4.0366,4.0483,4.0495,4.0342,4.0341,4.034,0,4.0141,4.0189,4.0238,4.0249,4.0266,4.0289,4.0297,4.0311,4.0329,4.0351,4.0363,4.0389,4.0404,4.0425,4.0419,4.0391,4.0477,4.0437,4.0478,4.0478,4.0498,4.0497,4.062,4.0507,4.0506,4.0506,4.0506,0,4.0232,4.0277,4.0271,4.0302,4.0351,4.0341,4.039,4.0395,4.0408,4.0439,4.0419,4.0448,4.0438,4.0467,4.0462,4.051,4.0517,4.0518,4.0516,4.052,4.052,4.0531,4.0526,4.0509,4.0509,4.0508,4.0508,0,4.0323,4.0321,4.0373,4.0385,4.039,4.0426,4.0436,4.0465,4.0465,4.0504,4.0513,4.0513,4.0547,4.0543,4.0579,4.0576,4.0636,4.0627,4.0631,4.063,4.0672,4.0668,4.0806,4.0824,4.0699,4.07,4.0701,0,4.0382,4.0416,4.0433,4.0452,4.0462,4.0494,4.0512,4.0504,4.0524,4.0546,4.0572,4.0603,4.0628,4.0682,4.0686,4.0714,4.0707,4.0753,4.0711,4.0714,4.0709,4.0708,4.0711,4.0762,4.0763,4.0764,4.0765,0,4.0488,4.0486,4.0513,4.0541,4.0564,4.0586,4.0605,4.0622,4.0615,4.0639,4.0673,4.0692,4.0731,4.0762,4.0789,4.0798,4.0781,4.0779,4.079,4.0795,4.0796,4.0797,4.0655,4.0776,4.0775,4.0774,4.0773,4.0773,4.0565,4.0595,4.0612,4.0644,4.0657,4.0676,4.0704,4.0708,4.0737,4.0768,4.0761,4.08,4.0816,4.0851,4.0862,4.0892,4.0875,4.0891,4.0895,4.09,4.0906,4.0791,4.0897,4.0896,4.0896,4.0896,4.0896,0,4.0671,4.0681,4.071,4.0739,4.0764,4.0746,4.0767,4.0789,4.0824,4.0841,4.0866,4.0906,4.0937,4.0944,4.0974,4.0997,4.099,4.1005,4.1004,4.1006,4.0918,4.0906,4.101,4.101,4.101,4.101,4.101,4.101,4.0729,4.0779,4.0779,4.0835,4.0844,4.0883,4.0896,4.0914,4.0927,4.0973,4.0999,4.1003,4.1016,4.1047,4.1075,4.1076,4.1089,4.1107,4.1106,4.1024,4.1012,4.1001,4.099,4.111,4.111,4.1191,4.1192,4.1193]}]]